| time (UTC) | temp F | wind direction | speed MPH | gust MPH | rain 1hr in | rain 24hr in | rain mn in | humidity % | barometer mb |
| 20260504231605 | 63 | 120 | 2.0 | 7.0 | 0.00 | 0.00 | 0.00 | 66 | 1011.7 |
| 20260504230059 | 63 | 0 | 2.0 | 7.0 | 0.00 | 0.00 | 0.00 | 67 | 1011.7 |
| 20260504224557 | 63 | 136 | 2.0 | 7.0 | 0.00 | 0.00 | 0.00 | 68 | 1011.8 |
| 20260504223058 | 63 | 155 | 4.0 | 7.0 | 0.00 | 0.00 | 0.00 | 69 | 1011.7 |
| 20260504221608 | 63 | 123 | 3.0 | 8.0 | 0.00 | 0.00 | 0.00 | 69 | 1011.8 |
| 20260504220058 | 62 | 231 | 5.0 | 11.0 | 0.00 | 0.00 | 0.00 | 68 | 1011.8 |
| 20260504214558 | 63 | 205 | 4.0 | 11.0 | 0.00 | 0.00 | 0.00 | 67 | 1011.7 |
| 20260504213057 | 64 | 103 | 4.0 | 9.0 | 0.00 | 0.00 | 0.00 | 67 | 1011.8 |
| 20260504211559 | 63 | 221 | 4.0 | 13.0 | 0.00 | 0.00 | 0.00 | 67 | 1011.8 |
| 20260504210110 | 63 | 198 | 5.0 | 10.0 | 0.00 | 0.00 | 0.00 | 68 | 1011.9 |
| 20260504204603 | 64 | 184 | 5.0 | 14.0 | 0.00 | 0.00 | 0.00 | 66 | 1012.0 |
| 20260504203104 | 65 | 162 | 6.0 | 12.0 | 0.00 | 0.00 | 0.00 | 64 | 1012.1 |
| 20260504201614 | 65 | 179 | 4.0 | 14.0 | 0.00 | 0.00 | 0.00 | 63 | 1012.1 |
| 20260504200110 | 65 | 212 | 6.0 | 16.0 | 0.00 | 0.00 | 0.00 | 63 | 1012.0 |
| 20260504194612 | 66 | 146 | 4.0 | 11.0 | 0.00 | 0.00 | 0.00 | 61 | 1012.1 |
| 20260504193100 | 65 | 198 | 4.0 | 12.0 | 0.00 | 0.00 | 0.00 | 61 | 1012.2 |
| 20260504191557 | 65 | 150 | 3.0 | 10.0 | 0.00 | 0.00 | 0.00 | 60 | 1012.2 |
| 20260504190130 | 66 | 129 | 6.0 | 11.0 | 0.00 | 0.00 | 0.00 | 59 | 1012.4 |
| 20260504184606 | 66 | 293 | 2.0 | 11.0 | 0.00 | 0.00 | 0.00 | 60 | 1012.6 |
| 20260504183058 | 67 | 162 | 4.0 | 12.0 | 0.00 | 0.00 | 0.00 | 58 | 1012.8 |
| 20260504181612 | 66 | 160 | 6.0 | 11.0 | 0.00 | 0.00 | 0.00 | 60 | 1013.0 |
| 20260504180150 | 67 | 143 | 4.0 | 14.0 | 0.00 | 0.00 | 0.00 | 59 | 1013.2 |
| 20260504174556 | 67 | 153 | 4.0 | 11.0 | 0.00 | 0.00 | 0.00 | 61 | 1013.1 |
| 20260504173118 | 68 | 160 | 3.0 | 12.0 | 0.00 | 0.00 | 0.00 | 58 | 1013.5 |
| 20260504171602 | 68 | 302 | 4.0 | 10.0 | 0.00 | 0.00 | 0.00 | 56 | 1013.5 |
| 20260504140113 | 65 | 153 | 2.0 | 10.0 | 0.00 | 0.00 | 0.00 | 48 | 1015.4 |
| 20260504120114 | 53 | 0 | 0.0 | 2.0 | 0.00 | 0.00 | 0.00 | 68 | 1016.1 |
| 20260504081558 | 46 | 0 | 0.0 | 3.0 | 0.00 | 0.00 | 0.00 | 76 | 1016.3 |
| 20260504050133 | 44 | 0 | 0.0 | 0.0 | 0.00 | 0.00 | 0.00 | 77 | 1015.9 |
| 20260504044559 | 45 | 0 | 0.0 | 0.0 | 0.00 | 0.00 | 0.00 | 75 | 1015.8 |
| 20260504043101 | 45 | 0 | 0.0 | 0.0 | 0.00 | 0.00 | 0.00 | 74 | 1015.6 |
| 20260504041558 | 45 | 0 | 0.0 | 0.0 | 0.00 | 0.00 | 0.00 | 74 | 1015.6 |
| 20260504040105 | 44 | 0 | 0.0 | 0.0 | 0.00 | 0.00 | 0.00 | 74 | 1015.5 |
| 20260504034558 | 44 | 0 | 0.0 | 1.0 | 0.00 | 0.00 | 0.00 | 73 | 1015.5 |
| 20260504033058 | 44 | 0 | 0.0 | 0.0 | 0.00 | 0.00 | 0.00 | 73 | 1015.4 |
| 20260504031623 | 44 | 0 | 0.0 | 0.0 | 0.00 | 0.00 | 0.00 | 72 | 1015.4 |
| 20260504030058 | 44 | 0 | 0.0 | 0.0 | 0.00 | 0.00 | 0.00 | 69 | 1015.3 |
| 20260504024556 | 45 | 0 | 0.0 | 0.0 | 0.00 | 0.00 | 0.00 | 67 | 1015.3 |
| 20260504023100 | 45 | 0 | 0.0 | 0.0 | 0.00 | 0.00 | 0.00 | 64 | 1015.2 |
| 20260504021609 | 46 | 0 | 0.0 | 0.0 | 0.00 | 0.00 | 0.00 | 64 | 1015.2 |
| 20260504020106 | 46 | 0 | 0.0 | 0.0 | 0.00 | 0.00 | 0.00 | 62 | 1015.2 |
| 20260504014600 | 46 | 0 | 0.0 | 0.0 | 0.00 | 0.00 | 0.00 | 61 | 1015.2 |
| 20260504013110 | 47 | 0 | 0.0 | 0.0 | 0.00 | 0.00 | 0.00 | 61 | 1015.0 |
| 20260504011600 | 47 | 0 | 0.0 | 0.0 | 0.00 | 0.00 | 0.00 | 59 | 1015.0 |
| 20260504010115 | 48 | 0 | 0.0 | 0.0 | 0.00 | 0.00 | 0.00 | 55 | 1014.6 |
| 20260504004558 | 49 | 0 | 0.0 | 0.0 | 0.00 | 0.00 | 0.00 | 53 | 1014.4 |
| 20260504003059 | 51 | 0 | 0.0 | 0.0 | 0.00 | 0.00 | 0.00 | 49 | 1014.2 |
| 20260504001611 | 52 | 0 | 0.0 | 0.0 | 0.00 | 0.00 | 0.00 | 44 | 1014.1 |
| 20260504000105 | 54 | 0 | 0.0 | 1.0 | 0.00 | 0.00 | 0.00 | 41 | 1014.0 |
| 20260503234600 | 56 | 0 | 0.0 | 3.0 | 0.00 | 0.00 | 0.00 | 40 | 1013.9 |
| 20260503233057 | 57 | 307 | 0.0 | 6.0 | 0.00 | 0.00 | 0.00 | 36 | 1013.7 |